www.pogodaiklimat.ru

Погода и климат >> Архив погоды >> Россия >> Магаданская область >> Совхоз Эльген


ПОГОДА в Совхозе Эльген

  • Прогноз погоды в Совхозе Эльген
  • Монитор погоды в Совхозе Эльген
  • Климат города

АРХИВ ПОГОДЫ в Совхозе Эльген

Время (UTC), дата Ветер
(напр.,м/с)
 
Видим.   Явления Облачность Т
(С)
Тd
(С)
f
(%)
Тe
(С)
Тes
(С)
Комфортность P
(гПа)
Po
(гПа)
Тmin
(С)
Tmax
(С)
R
(мм)
R24
(мм)
S
(см)
12 17.04 З 1 50 км 6/0
[Ci fib]
-18.2 -20.0 86 -21 -21 1000.4 959.5
15 17.04 штиль 0 50 км 4/0
[Ci fib]
-22.8 -24.6 85 -23 -23 1002.6 960.9
18 17.04 штиль 0 50 км 6/0
[Ci fib]
-25.9 -28.2 81 -26 -26 1004.5 962.2
21 17.04 штиль 0 50 км ясно -17.5 -21.4 72 -18 -15 1004.6 963.7 -27.3 72
00 18.04 ЮЗ 1 50 км 3/0
[Ci fib]
-7.2 -15.0 54 -9 -1 1003.2 963.9
03 18.04 З 1 50 км 1/0
[Ci fib]
-0.6 -12.3 41 -2 +8 1001.8 963.4
06 18.04 ЮЗ 1 50 км 1/0
[Ci fib]
+0.2 -12.2 39 -1 +3 1001.9 963.7
09 18.04 ЮЗ 1 50 км 3/0
[Ci fib]
-4.6 -12.4 54 -6 -6 1003.5 964.5 +0.5
12 18.04 С 1 50 км 4/0
[Ac trans Ci fib]
-15.6 -17.9 82 -18 -18 1006.8 966.0
15 18.04 штиль 0 50 км 4/0
[Ac trans Ci fib]
-19.1 -20.9 86 -19 -19 1009.0 967.6
18 18.04 штиль 0 50 км 3/1 1000 м
[Sc Ci fib]
-23.5 -25.5 84 -24 -24 1011.2 969.1
21 18.04 штиль 0 50 км 4/3 1000 м
[Sc Ci fib]
-14.3 -18.5 70 -14 -12 1011.2 970.5 -24.3 72
00 19.04 З 1 50 км ясно -5.4 -15.1 46 -7 +2 1009.9 970.6
03 19.04 ЮЗ 1 50 км 6/0
[Ac trans]
+0.1 -13.4 35 -1 +6 1008.7 970.2
06 19.04 З 2 50 км 8/0
[Ac trans Ci fib]
+1.0 -12.9 35 -1 +1 1008.6 970.2
09 19.04 СЗ 1 50 км 8/3 1000 м
[Sc Ac trans Ci fib]
-3.0 -11.6 51 -5 -5 1010.3 971.3 +1.6
12 19.04 штиль 0 50 км 8/4 1000 м
[Sc Ac trans Ci fib]
-10.8 -14.1 77 -11 -11 1013.2 972.9
15 19.04 штиль 0 н/о н/о -18.0 -19.2 90 -18 -18 1015.4 973.9
18 19.04 штиль 0 50 км 4/3 1000 м
[Sc Ci fib]
-22.9 -24.9 84 -23 -23 1017.2 974.8
21 19.04 штиль 0 50 км 4/0
[Ci fib]
-12.8 -16.8 72 -13 -10 1015.9 975.2 -23.3 72
00 20.04 ЮЗ 1 50 км 4/3 1000 м
[Sc Ci fib]
-3.5 -12.4 50 -5 +1 1014.0 974.8
03 20.04 З 1 50 км 6/0
[Ac trans Ci fib]
+1.3 -10.8 40 0 +8 1012.6 974.1
06 20.04 З 2 50 км 3/0
[Ci fib]
+2.1 -10.6 38 -0 +3 1012.2 973.8
09 20.04 З 1 50 км 8/3 1000 м
[Sc Ac trans Ci fib]
-2.4 -10.5 54 -4 -4 1013.5 974.5 +2.4
12 20.04 штиль 0 50 км 3/1 1000 м
[Sc Ci fib]
-12.7 -14.6 86 -13 -13 1016.0 975.3
15 20.04 штиль 0 50 км 4/0
[Ci fib]
-17.7 -19.3 87 -18 -18 1017.4 975.9
18 20.04 штиль 0 50 км 8/3 1000 м
[Sc Ac trans Ci fib]
-18.4 -20.1 86 -18 -18 1017.9 976.3
21 20.04 штиль 0 50 км 9/0
[Ac trans Ci fib]
-12.0 -15.5 75 -12 -10 1016.9 976.3 -19.1 72
00 21.04 ЮЗ 1 50 км 10/0
[Ac trans Cs]
-3.0 -11.9 50 -5 +2 1014.6 975.4
03 21.04 ЮЗ 1 50 км 4/0
[Ci fib]
+1.1 -10.1 43 0 +10 1013.4 974.8
06 21.04 Ю 2 50 км 6/3 1000 м
[Cu hum Ci fib]
+1.2 -8.9 47 -1 +1 1012.7 974.2
09 21.04 Ю 1 50 км 4/0
[Ac trans Ci fib]
-1.1 -9.1 55 -3 -3 1013.6 974.7 +3.3
12 21.04 В 1 50 км 4/3 1000 м
[Sc Ci fib]
-10.5 -12.7 84 -13 -13 1015.6 975.3
15 21.04 З 1 50 км 6/0
[Ac trans Ci fib]
-12.3 -14.3 85 -15 -15 1016.3 975.7
18 21.04 СЗ 1 50 км 10/6 1000 м
[Sc Ac trans]
-11.8 -13.6 86 -14 -14 1016.6 976.1
21 21.04 З 1 50 км 10/5 1000 м
[Sc Ac trans]
-8.1 -12.6 70 -10 -10 1016.2 976.2 -13.1 71
00 22.04 З 2 50 км 6/3 1000 м
[Sc Ac trans Ci fib]
-1.6 -11.1 48 -5 -0 1014.8 975.8
03 22.04 З 2 50 км 9/4 1000 м
[Sc Ac trans Ci fib]
+3.5 -8.6 41 +1 +5 1013.1 974.9
06 22.04 З 1 50 км 9/3 1000 м
[Sc Ac trans Ci fib]
+3.9 -8.9 39 +3 +5 1012.2 974.0
09 22.04 С 2 50 км 9/5 1000 м
[Sc Ac trans Ci fib]
+1.7 -7.8 49 -1 -1 1012.8 974.4 +4.6
12 22.04 З 1 50 км 10/5 1000 м
[Sc Ac trans]
-2.2 -7.2 69 -4 -4 1014.4 975.4
15 22.04 СЗ 2 50 км 10/6 1000 м
[Sc Ac trans]
-2.7 -5.4 82 -7 -7 1015.1 976.0
18 22.04 СЗ 2 50 км 9/5 1000 м
[Sc Ac trans Ci fib]
-3.5 -5.9 83 -8 -8 1016.1 976.9
21 22.04 СЗ 2 50 км 9/4 1000 м
[Sc Ac trans Ci fib]
-1.5 -6.6 68 -5 -4 1017.3 978.2 -3.6 70
00 23.04 СЗ 2 50 км 9/3 1000 м
[Sc Ac trans Ci fib]
+2.7 -5.3 56 0 +3 1016.4 978.0
03 23.04 З 3 50 км 9/6 1000 м
[Cb cap Ac trans Ci fib]
+4.4 -4.4 53 +1 +3 1015.6 977.4
06 23.04 СЗ 2 50 км 10/10 1000 м
[Cb cap]
+4.1 -6.1 47 +2 +2 1015.2 977.0
09 23.04 СЗ 1 50 км 8/6 1000 м
[Cb cap Ac trans Ci fib]
+1.8 -5.6 58 +1 +1 1015.4 976.9 +5.2
12 23.04 штиль 0 50 км 6/3 1000 м
[Sc Ac trans Ci fib]
-5.9 -6.7 94 -7 -7 1016.4 976.8
15 23.04 штиль 0 50 км 3/0
[Ci fib]
-11.7 -12.2 96 -12 -12 1016.4 975.9
18 23.04 штиль 0 50 км ясно -15.7 -16.7 92 -16 -16 1016.0 974.9
21 23.04 штиль 0 50 км ясно -7.9 -11.3 77 -8 -5 1013.3 973.5 -17.0 66
00 24.04 ЮВ 2 50 км ясно -0.5 -7.7 58 -4 +5 1009.5 970.9
03 24.04 Ю 3 50 км ясно +4.0 -9.7 36 +1 +9 опасность
простуды
1005.8 967.9
06 24.04 Ю 3 50 км ясно +4.1 -8.5 39 +1 +5 1003.2 965.5
09 24.04 Ю 2 50 км ясно +1.3 -7.5 52 -1 -1 1001.9 963.9 +5.1

 

Местоположение метеостанции Совхоз Эльген (Магаданская область, Россия): широта 62.80 долгота 150.60 высота над уровнем моря 312 м.

В архиве по умолчанию представлена погода в Совхозе Эльген за последнюю неделю. Архивные данные за месяц целиком и за предыдущие месяцы, начиная с января 2011 года, Вы можете получить, выбрав интересующий диапазон дат из раскрывающегося списка и нажав кнопку "Ввод!".


*Определитесь, кто Вы:
робот инопланетянин человек

Внимание! Время в таблицах - всемирное. Для получения местного времени необходимо прибавить поправку, которая в Совхозе Эльген равна 11 ч.

Смотрите также архив погоды в соседних городах и на ближайших метеорологических станциях:

Погода в Ягодной (Магаданская область, Россия) (60 км)
Погода в Усть-Бохапче (Магаданская область, Россия) (78 км)
Погода в Сеймчане (Магаданская область, Россия) (92 км)
Погода в Среднекане (Магаданская область, Россия) (95 км)
Погода в Озере Джека Лондона (Магаданская область, Россия) (98 км)
Погода в Сусумане (Магаданская область, Россия) (127 км)
Погода в Колымской (Магаданская область, Россия) (188 км)
Погода в Усть-Омчуге (Магаданская область, Россия) (194 км)
Погода в Талае (Магаданская область, Россия) (206 км)
Погода в Балыгычане (Магаданская область, Россия) (214 км)

Пояснения к столбцам:

Ветер - указаны скорость ветра в м/с - средняя за 10 мин, порывы в срок и между сроками (в фигурных скобках) и направление, откуда дует ветер: С - северный, СВ - северо-восточный, В - восточный, ЮВ - юго-восточный, Ю - южный, ЮЗ - юго-западный, З - западный, СЗ - северо-западный.
Видимость - горизонтальная дальность видимости в метрах или километрах. При видимости от 1 до 10 км при отсутствии осадков обычно наблюдается дымка, при ухудшении видимости до 1 км и менее - туман. В сухую погоду видимость может ухудшаться дымом, пылью или мглою.
Явления - указаны атмосферные явления, наблюдавшиеся в срок или в последний час перед сроком; фигурными скобками обозначены явления, наблюдавшиеся между сроками (за 1-3 часа до срока); квадратными скобками обозначены град или гололедные отложения с указанием их диаметра в мм.
Облачность - указаны через наклонную черту общая и нижняя облачность в баллах и высота нижней границы облаков в метрах; квадратными скобками обозначены формы облаков: Ci - перистые, Cs - перисто-слоистые, Cc - перисто-кучевые, Ac - высококучевые, As - высокослоистые, Sc - слоисто-кучевые, Ns - слоисто-дождевые, Cu - кучевые, Cb - кучево-дождевые. Подробнее классификацию облаков см. в Атласе облаков (PDF).
T - Температура воздуха - температура, измеренная на высоте 2 м над землей.
Td - Температура точки росы - температура, при понижении до которой содержащийся в воздухе водяной пар достигнет насыщения.
f - Относительная влажность воздуха - влажноcть воздуха, измеренная на высоте 2 м над землей.
Te - Эффективная температура - температура, которую ощущает одетый по сезону человек в тени. Характеристика душности погоды. При расчете учитывается влияние влажности воздуха и скорости ветра на теплоощущения человека.
Tes - Эффективная температура на солнце - температура, которую ощущает человек, с поправкой на солнечный нагрев. Характеристика знойности погоды. Зависит от высоты солнца над горизонтом, облачности и скорости ветра. Ночью, в пасмурную погоду, а также при ветре 12 м/с и более поправка равна нулю.
P - Атмосферное давление - приведенное к уровню моря атмосферное давление.
Po - Атмосферное давление - измеренное на уровне метеостанции атмосферное давление.
Tmin - Минимальная температура - минимум температуры воздуха на высоте 2 м над землей.
Tmax - Максимальная температура - максимум температуры воздуха на высоте 2 м над землей.
R - Количество осадков - Количество выпавших осадков за период времени, мм. При наведении курсора мыши на число - период времени, за который выпало указанное количество осадков.
R24 - Количество осадков - Количество выпавших осадков за 24 часа, мм.
S - Снежный покров - Высота снежного покрова, см. При наведении курсора мыши на число - состояние снежного покрова и степень покрытия местности в баллах.